Regional Weather Roundup
Issued by NWS

Home | Current Version | Previous Version | Text Only | Print | Product List | Glossary Off
Versions: 1 2 3 4 5 6 7 8 9 10 11 12 13 14 15 16 17 18 19 20 21 22 23 24 25 26 27 28 29 30 31 32 33 34 35 36 37 38 39 40 41 42 43 44 45 46 47 48 49 50

000
ASUS45 KTFX 241619
RWRMT
MONTANA HOURLY WEATHER ROUNDUP
NATIONAL WEATHER SERVICE GREAT FALLS MT
919 AM MST WED DEC 24 2014

NOTE: "FAIR" INDICATES FEW OR NO CLOUDS BELOW 12000 FEET WITH NO
SIGNIFICANT WEATHER AND/OR OBSTRUCTIONS TO VISIBILITY.

* THESE STATIONS ARE NOT UNDER NWS QUALITY CONTROL. THEY DO NOT
   REPORT WEATHER SUCH AS PRECIPITATION OR FOG.

MTZ001>007-043-241700-
WEST OF THE DIVIDE
CITY           SKY/WX    TMP DP  RH WIND       PRES   REMARKS
KALISPELL      LGT SNOW  34  32  92 CALM      29.65F VSB 1
MISSOULA       CLOUDY    30  27  89 CALM      29.64F
BUTTE          CLOUDY    28  21  75 S3        29.69F
MULLAN PASS    SNOW      30  27  89 SW7       29.59F VSB M1/4 WCI  23
* HAMILTON APT CLOUDY    45  28  51 S15       29.63F
* LIBBY APT    CLOUDY    32  32 100 CALM      29.68F VSB 1 3/4
* LINCOLN      N/A       35  29  79 NW3        N/A
* LOOKOUT PASS N/A       32  32 100 N/A        N/A
* POLSON       N/A       35  35 100 SE1        N/A
* RONAN APT    CLOUDY    37  36  96 N/A        N/A
* SEELEY LAKE  N/A       29  27  92 NW1        N/A
* THOMP F APT  CLOUDY    19  12  74 E7G14      N/A   WCI  10
$$

MTZ008-052>055-241700-
SOUTHWEST MONTANA
CITY           SKY/WX    TMP DP  RH WIND       PRES   REMARKS
BOZEMAN        CLOUDY    32  25  75 SE3       29.69F
DILLON         PTSUNNY   28  19  69 CALM      29.73F
* W YELLOWSTON PTCLDY    19  14  81 N/A        N/A
* THREE FORKS  CLOUDY    36  21  54 S26G37     N/A   WCI  24
* BOULDER HILL N/A       36  19  50 S24        N/A   WCI  24
* MONIDA PASS  N/A       17  14  88 SE18G26    N/A   WCI   1
* RAYNOLDS PAS N/A       18   4  54 S18G23     N/A   WCI   2
* WHITEHALL    N/A       34  22  61 SW17G24    N/A   WCI  23
* WISE RIVER   N/A       28  22  78 SE2G11     N/A
$$

MTZ009>010-012-014-046-048-049-054-241700-
EAST SLOPES AND CENTRAL MONTANA
CITY           SKY/WX    TMP DP  RH WIND       PRES   REMARKS
CUT BANK       SNOW      32  30  92 NE7       29.60F VSB M1/4 WCI  25
GREAT FALLS    CLOUDY    37  32  82 NE10      29.60R WCI  30
HELENA         PTSUNNY   32  25  75 W5        29.61F WCI  27
MALMSTROM AFB  LGT RAIN  36  34  92 NE16      29.62R WCI  26
* CONRAD       CLOUDY    34  30  85 CALM       N/A
* DEARBORN     N/A       40  29  65 S6         N/A   WCI  36
* EAST GLACIER N/A       30  29  96 SE1        N/A
* MONARCH      N/A       38  22  53 SW16G22    N/A   WCI  29
* PENDROY      N/A       31  30  96 SE4        N/A
* ROGERS PASS  N/A       34  28  79 SE13G20    N/A   WCI  25
* SWEET GRASS  N/A       30  30 100 NW4        N/A
* WHITE SULPH  N/A       38  23  55 S15G25     N/A   WCI  29
$$

MTZ011-013-016-021-035-040-045-047-050-051-241700-
NORTH CENTRAL MONTANA
CITY           SKY/WX    TMP DP  RH WIND       PRES   REMARKS
HAVRE          CLOUDY    36  34  92 SW6       29.61S WCI  31
LEWISTOWN      CLOUDY    45  28  51 SW18      29.56F
* N BAR RANCH  CLOUDY    41  28  60 SW6       29.58F
* CHINOOK      CLOUDY    36  34  92 W3        29.61R
* CHESTER      N/A       33  30  89 N/A        N/A
* DENTON       N/A       39  28  65 NE9G14     N/A   WCI  33
* GEYSER       N/A       44  25  47 SW16       N/A
* JUDITH GAP   N/A       39  25  57 SW12       N/A   WCI  32
* LOMA         N/A       34  33  96 N5         N/A   WCI  29
$$

MTZ017>020-022>027-061-062-241700-
NORTHEAST MONTANA
CITY           SKY/WX    TMP DP  RH WIND       PRES   REMARKS
GLASGOW        CLOUDY    32  27  82 SW5       29.55F WCI  27
GLENDIVE       CLOUDY    30  27  89 S7        29.60F WCI  23
JORDAN         CLOUDY    32  30  92 CALM      29.58F
SIDNEY         CLOUDY    28  25  89 S8        29.59F WCI  20
WOLF POINT     CLOUDY    30  27  89 W5        29.56F WCI  25
* BEAVER HILL  N/A       30  25  82 SW20G26    N/A   WCI  17
* CIRCLE       N/A       34  31  89 SW5        N/A   WCI  29
* LINDSAY DVD  N/A       37  33  85 W12        N/A   WCI  29
* NAVAJO       N/A       32  27  82 W18        N/A   WCI  21
* PLENTYWOOD A CLOUDY    27  27 100 CALM      29.52F
* POPLAR APT   CLOUDY    32  28  85 N/A       29.56F
* SACO         N/A       34  31  89 NW7        N/A   WCI  28
$$

MTZ028>042-056>058-241700-
SOUTHCENTRAL AND SOUTHEAST MONTANA
CITY           SKY/WX    TMP DP  RH WIND       PRES   REMARKS
BAKER          CLOUDY    30  27  89 SW10      29.63F WCI  21
BILLINGS       CLOUDY    37  14  39 SW22G30   29.65F WCI  26
LIVINGSTON     PTSUNNY   37  18  46 SW38G60   29.64F WCI  23
MILES CITY     CLOUDY    30  25  82 SE10      29.62F WCI  21
* BIG TIMBER A PTSUNNY   36  18  48 W13       29.66F WCI  27
* FORSYTH APT  CLOUDY    34  30  85 CALM      29.61F
* LAUREL APT   CLOUDY    37  10  33 SW16G29    N/A   WCI  28
* ROUNDUP APT  PTSUNNY   36  19  50 S5         N/A   WCI  32
* ALZADA       N/A       27  19  72 W3         N/A
* HYSHAM       N/A       36  21  54 W8G13      N/A   WCI  30
* LAME DEER    N/A       35  22  59 SW8        N/A   WCI  28
* REED POINT   N/A       28  22  78 N/A        N/A
* ROSCOE HILL  N/A       40   8  26 S12G20     N/A   WCI  33
$$

REGIONAL REPORTS...DAKOTAS
CITY           SKY/WX    TMP DP  RH WIND       PRES   REMARKS
WILLISTON      CLOUDY    27  21  78 S3        29.57F
DICKINSON      CLOUDY    28  18  66 SW15      29.58F WCI  16
BEACH          CLOUDY    32  28  85 SW14      29.60F WCI  22
CROSBY         PTCLDY    28  28 100 SW15      29.54S WCI  16
TIOGA          PTSUNNY   27  27 100 SW17G22   29.57F WCI  14
WATFORD CITY   PTCLDY    30  25  82 SW9       29.56F WCI  22
BISMARCK       CLOUDY    25  21  85 S7        29.71F WCI  17
GRAND FORKS    CLOUDY    27  25  92 SW8       29.77F WCI  19
FARGO          CLOUDY    28  25  89 W9        29.80F WCI  19
BUFFALO SD     SUNNY     27  18  69 W6        29.59F WCI  20
RAPID CITY     PTSUNNY   21  16  81 CALM      29.70F
$$

REGIONAL REPORTS...WYOMING/IDAHO/WASHINGTON
CITY           SKY/WX    TMP DP  RH WIND       PRES   REMARKS
GILLETTE       PTCLDY    36  18  48 SW21G29   29.65F WCI  25
SHERIDAN       PTSUNNY   30  21  69 CALM      29.64F
CODY           PTCLDY    37  18  46 W6G17     29.75S WCI  32
YELLOWSTONE LA CLOUDY    18  12  77 CALM      29.91F
SALMON         CLOUDY    27  19  72 CALM      29.80F
MULLAN PASS    SNOW      30  27  89 SW7       29.59S VSB M1/4 WCI  23
SAND POINT     LGT SNOW  32  32 100 CALM      29.71F
SPOKANE        CLOUDY    34  32  92 SE5       29.70F WCI  29
$$

REGIONAL REPORTS...ALBERTA
CITY           SKY/WX    TMP DP  RH WIND       PRES   REMARKS
CALGARY        CLOUDY    28  18  66 NW6       29.57F WCI  21
LETHBRIDGE     CLOUDY    34  28  79 SW9       29.59F WCI  27
MEDICINE HAT   PTSUNNY   30  28  92 S5        29.60F WCI  25
EDMONTON       PTSUNNY   28  19  69 W8        29.56F WCI  20
WATERTON GATE  N/A       34  28  79 SW12       N/A   WCI  25
CARDSTON       N/A       34  30  85 NW6        N/A   WCI  29
MILK RIVER     N/A       32  28  85 W3         N/A
$$

REGIONAL REPORTS...SASKATCHEWAN
CITY           SKY/WX    TMP DP  RH WIND       PRES   REMARKS
SWIFT CURRENT  PTSUNNY   27  25  92 W10       29.53F WCI  18
REGINA         PTSUNNY   25  23  92 W7        29.49R WCI  17
VAL MARIE      N/A       28  27  96 SW2        N/A
ASSINIBOIA     N/A       28  23  81 W13        N/A   WCI  17
CORONACH       N/A       32  27  82 NW8        N/A   WCI  25

$$



USA.gov is the U.S. government's official web portal to all federal, state and local government web resources and services.